Flag for United Kingdom Weather past 2 weeks in Nottingham, England, United Kingdom

Now
77 °F

Sunny.


Feels Like: 79 °F
Forecast: 58 / 78 °F
Wind: 15 mph from Northeast

Location: East Midlands

Current Time: Jul 23, 2014 at 5:47:30 PM

Latest Report: Jul 23, 2014 at 5:20 PM


Visibility: 10 mi

Pressure: 30.12 "Hg

Humidity: 54%

Dew point: 59 °F

Location of NottinghamLocation

Historic Weather in Nottingham — Graph

°F

Nottingham temperature yesterday

Maximum temperature yesterday: 77 °F (at 3:50 PM)
Minimum temperature yesterday: 55 °F (at 4:20 AM)
Average temperature yesterday: 64 °F

Past Weeks' High & Low Weather Summary

 TemperatureHumidityPressure
High82 °F (Jul 18, 4:50 PM)100% (Jul 19, 5:20 AM)30.27 "Hg (Jul 19, 5:20 AM)
Low50 °F (Jul 14, 4:20 AM)40% (Jul 10, 11:20 AM)29.71 "Hg (Jul 13, 6:50 AM)
Average65 °F75%30.00 "Hg
* Reported Jul 8 4:20 PM — Jul 23 4:50 PM, Nottingham, Weather by CustomWeather, © 2014

Note: Actual official high and low records may vary slightly from our data, if they occured in-between our weather recording intervals... More about our weather records

Advertising

Nottingham weather history for previous 24 hours

 ConditionsComfort  
Time TempWeatherWind HumidityBarometerVisibility
4:50 PM
Jul 23
77 °FSunny.16 mph57%30.12 "Hg10 mi
4:20 PM77 °FSunny.16 mph54%30.12 "Hg10 mi
3:50 PM77 °FSunny.17 mph51%30.12 "Hg10 mi
3:20 PM77 °FSunny.16 mph54%30.15 "Hg10 mi
2:50 PM77 °FPassing clouds.16 mph51%30.15 "HgN/A
2:20 PM77 °FSunny.16 mph54%30.15 "Hg10 mi
1:50 PM77 °FPassing clouds.17 mph57%30.15 "HgN/A
1:20 PM77 °FPassing clouds.16 mph54%30.15 "HgN/A
12:50 PM75 °FPassing clouds.15 mph61%30.18 "HgN/A
11:50 AM72 °FPassing clouds.14 mph69%30.18 "HgN/A
10:50 AM70 °FPassing clouds.14 mph69%30.21 "HgN/A
10:20 AM68 °FPassing clouds.12 mph73%30.21 "HgN/A
6:20 AM59 °FFog.9 mph94%30.24 "Hg3 mi
5:50 AM59 °FFog.8 mph94%30.24 "Hg3 mi
5:20 AM59 °FFog.9 mph94%30.24 "Hg3 mi
4:50 AM59 °FLow clouds.7 mph94%30.24 "Hg4 mi
4:20 AM59 °FLow clouds.7 mph94%30.24 "Hg4 mi
3:50 AM59 °FMostly cloudy.7 mph94%30.24 "Hg5 mi
3:20 AM59 °FMostly cloudy.7 mph94%30.24 "Hg5 mi
2:50 AM59 °FMostly cloudy.6 mph94%30.27 "Hg4 mi
2:20 AM59 °FMostly cloudy.5 mph100%30.27 "Hg4 mi
1:50 AM59 °FLow clouds.5 mph100%30.27 "Hg4 mi
12:50 AM59 °FPassing clouds.9 mph100%30.27 "Hg5 mi
5:50 PM
Jul 22
75 °FScattered clouds.12 mph54%30.21 "HgN/A
5:20 PM75 °FScattered clouds.9 mph57%30.21 "HgN/A
Weather by CustomWeather, © 2014

See weather overviewHow to use our weather pages